Time,TemperatureF,DewpointF,PressureIn,WindDirection,WindDirectionDegrees,WindSpeedMPH,WindSpeedGustMPH,Humidity,HourlyPrecipIn,Conditions,Clouds,dailyrainin,SoftwareType,DateUTC
2013-09-28 00:13:00,62.2,58.0,30.12,West,276,0.0,-999.0,87,-99.99,,,0.00,weatherlink.com 1.10,2013-09-28 04:13:00,
2013-09-28 00:28:00,63.2,58.0,30.12,West,276,0.0,-999.0,84,-99.99,,,0.00,weatherlink.com 1.10,2013-09-28 04:28:00,
2013-09-28 00:43:00,63.3,58.0,30.12,West,276,0.0,-999.0,84,-99.99,,,0.00,weatherlink.com 1.10,2013-09-28 04:43:00,
2013-09-28 00:58:00,63.5,59.0,30.12,NNW,343,0.0,-999.0,84,-99.99,,,0.00,weatherlink.com 1.10,2013-09-28 04:58:00,
2013-09-28 01:13:00,63.6,59.0,30.12,NNW,343,0.0,-999.0,84,-99.99,,,0.00,weatherlink.com 1.10,2013-09-28 05:13:00,
2013-09-28 01:28:00,63.7,59.0,30.12,NNE,31,0.0,-999.0,83,-99.99,,,0.00,weatherlink.com 1.10,2013-09-28 05:28:00,
2013-09-28 01:43:00,64.1,58.0,30.12,NE,47,0.0,-999.0,81,-99.99,,,0.00,weatherlink.com 1.10,2013-09-28 05:43:00,
2013-09-28 01:58:00,64.0,58.0,30.12,NE,36,0.0,-999.0,81,-99.99,,,0.00,weatherlink.com 1.10,2013-09-28 05:58:00,
2013-09-28 02:13:00,63.8,58.0,30.12,NE,36,0.0,-999.0,81,-99.99,,,0.00,weatherlink.com 1.10,2013-09-28 06:13:00,
2013-09-28 02:28:00,63.6,58.0,30.12,North,2,0.0,-999.0,81,-99.99,,,0.00,weatherlink.com 1.10,2013-09-28 06:28:00,
2013-09-28 02:43:00,63.5,58.0,30.12,North,351,0.0,-999.0,82,-99.99,,,0.00,weatherlink.com 1.10,2013-09-28 06:43:00,
2013-09-28 02:58:00,62.9,58.0,30.12,NW,305,0.0,-999.0,83,-99.99,,,0.00,weatherlink.com 1.10,2013-09-28 06:58:00,
2013-09-28 03:13:00,63.0,57.0,30.12,NW,305,0.0,-999.0,82,-99.99,,,0.00,weatherlink.com 1.10,2013-09-28 07:13:00,
2013-09-28 03:28:00,62.7,57.0,30.12,NW,305,0.0,-999.0,82,-99.99,,,0.00,weatherlink.com 1.10,2013-09-28 07:28:00,
2013-09-28 03:43:00,62.1,57.0,30.12,NW,305,0.0,-999.0,83,-99.99,,,0.00,weatherlink.com 1.10,2013-09-28 07:43:00,
2013-09-28 03:58:00,62.1,57.0,30.13,NW,305,0.0,-999.0,83,-99.99,,,0.00,weatherlink.com 1.10,2013-09-28 07:58:00,
2013-09-28 04:13:00,61.7,57.0,30.13,NW,305,0.0,-999.0,84,-99.99,,,0.00,weatherlink.com 1.10,2013-09-28 08:13:00,
2013-09-28 04:28:00,61.7,57.0,30.13,NW,305,0.0,-999.0,83,-99.99,,,0.00,weatherlink.com 1.10,2013-09-28 08:28:00,
2013-09-28 04:43:00,61.5,56.0,30.13,NE,40,0.0,-999.0,83,-99.99,,,0.00,weatherlink.com 1.10,2013-09-28 08:43:00,
2013-09-28 04:58:00,60.8,56.0,30.13,NNE,31,0.0,-999.0,85,-99.99,,,0.00,weatherlink.com 1.10,2013-09-28 08:58:00,
2013-09-28 05:13:00,60.8,56.0,30.14,NNE,19,0.0,-999.0,84,-99.99,,,0.00,weatherlink.com 1.10,2013-09-28 09:13:00,
2013-09-28 05:28:00,60.6,56.0,30.14,NNE,19,0.0,-999.0,84,-99.99,,,0.00,weatherlink.com 1.10,2013-09-28 09:28:00,
2013-09-28 05:43:00,60.1,56.0,30.14,NNE,14,0.0,-999.0,86,-99.99,,,0.00,weatherlink.com 1.10,2013-09-28 09:43:00,
2013-09-28 05:58:00,59.7,56.0,30.14,NNE,13,0.0,-999.0,86,-99.99,,,0.00,weatherlink.com 1.10,2013-09-28 09:58:00,
2013-09-28 06:13:00,59.6,56.0,30.15,NNE,13,0.0,-999.0,86,-99.99,,,0.00,weatherlink.com 1.10,2013-09-28 10:13:00,
2013-09-28 06:28:00,59.2,55.0,30.15,NNE,13,0.0,-999.0,87,-99.99,,,0.00,weatherlink.com 1.10,2013-09-28 10:28:00,
2013-09-28 06:43:00,59.1,55.0,30.16,NNE,13,0.0,-999.0,86,-99.99,,,0.00,weatherlink.com 1.10,2013-09-28 10:43:00,
2013-09-28 06:58:00,59.1,55.0,30.17,NNE,13,0.0,-999.0,86,-99.99,,,0.00,weatherlink.com 1.10,2013-09-28 10:58:00,
2013-09-28 07:13:00,59.0,55.0,30.17,NNE,13,0.0,-999.0,86,-99.99,,,0.00,weatherlink.com 1.10,2013-09-28 11:13:00,
2013-09-28 07:28:00,59.0,55.0,30.17,NNE,13,0.0,-999.0,85,-99.99,,,0.00,weatherlink.com 1.10,2013-09-28 11:28:00,
2013-09-28 07:43:00,59.1,55.0,30.18,NNE,13,0.0,-999.0,85,-99.99,,,0.00,weatherlink.com 1.10,2013-09-28 11:43:00,
2013-09-28 07:58:00,59.0,55.0,30.18,NNE,13,0.0,-999.0,85,-99.99,,,0.00,weatherlink.com 1.10,2013-09-28 11:58:00,
2013-09-28 08:13:00,59.4,54.0,30.18,North,10,0.0,-999.0,83,-99.99,,,0.00,weatherlink.com 1.10,2013-09-28 12:13:00,
2013-09-28 08:28:00,59.4,54.0,30.19,North,10,0.0,-999.0,82,-99.99,,,0.00,weatherlink.com 1.10,2013-09-28 12:28:00,
2013-09-28 08:43:00,59.6,54.0,30.19,North,10,0.0,-999.0,83,-99.99,,,0.00,weatherlink.com 1.10,2013-09-28 12:43:00,
2013-09-28 08:58:00,59.8,54.0,30.20,NNE,22,0.0,-999.0,81,-99.99,,,0.00,weatherlink.com 1.10,2013-09-28 12:58:00,
2013-09-28 09:13:00,60.1,54.0,30.20,NNE,26,0.0,-999.0,81,-99.99,,,0.00,weatherlink.com 1.10,2013-09-28 13:13:00,
2013-09-28 09:28:00,60.5,54.0,30.20,NNE,26,0.0,-999.0,79,-99.99,,,0.00,weatherlink.com 1.10,2013-09-28 13:28:00,
2013-09-28 09:43:00,60.7,55.0,30.21,NNE,26,0.0,-999.0,80,-99.99,,,0.00,weatherlink.com 1.10,2013-09-28 13:43:00,
2013-09-28 09:58:00,60.8,55.0,30.20,NNE,26,0.0,-999.0,81,-99.99,,,0.00,weatherlink.com 1.10,2013-09-28 13:58:00,
2013-09-28 10:13:00,61.1,55.0,30.21,SW,222,0.0,-999.0,81,-99.99,,,0.00,weatherlink.com 1.10,2013-09-28 14:13:00,
2013-09-28 10:28:00,61.5,55.0,30.22,North,5,0.0,-999.0,80,-99.99,,,0.00,weatherlink.com 1.10,2013-09-28 14:28:00,
2013-09-28 10:43:00,62.0,56.0,30.21,NNW,336,0.0,-999.0,80,-99.99,,,0.00,weatherlink.com 1.10,2013-09-28 14:43:00,
2013-09-28 10:58:00,62.5,56.0,30.21,NNW,329,0.0,-999.0,79,-99.99,,,0.00,weatherlink.com 1.10,2013-09-28 14:58:00,
2013-09-28 11:13:00,62.9,56.0,30.21,NE,42,0.0,-999.0,78,-99.99,,,0.00,weatherlink.com 1.10,2013-09-28 15:13:00,
2013-09-28 11:28:00,62.9,57.0,30.21,South,184,0.0,-999.0,80,-99.99,,,0.00,weatherlink.com 1.10,2013-09-28 15:28:00,
2013-09-28 11:43:00,63.6,57.0,30.21,WNW,291,0.0,-999.0,79,-99.99,,,0.00,weatherlink.com 1.10,2013-09-28 15:43:00,
2013-09-28 11:58:00,64.5,57.0,30.21,West,280,2.0,-999.0,77,-99.99,,,0.00,weatherlink.com 1.10,2013-09-28 15:58:00,
2013-09-28 12:13:00,64.9,58.0,30.21,SW,236,0.0,-999.0,77,-99.99,,,0.00,weatherlink.com 1.10,2013-09-28 16:13:00,
2013-09-28 12:28:00,65.6,58.0,30.21,West,264,2.0,-999.0,75,-99.99,,,0.00,weatherlink.com 1.10,2013-09-28 16:28:00,
2013-09-28 12:43:00,66.1,58.0,30.20,SW,224,0.0,-999.0,75,-99.99,,,0.00,weatherlink.com 1.10,2013-09-28 16:43:00,
2013-09-28 12:58:00,66.5,58.0,30.20,WSW,237,0.0,-999.0,73,-99.99,,,0.00,weatherlink.com 1.10,2013-09-28 16:58:00,
2013-09-28 13:13:00,67.0,58.0,30.19,West,259,0.0,-999.0,74,-99.99,,,0.00,weatherlink.com 1.10,2013-09-28 17:13:00,
2013-09-28 13:28:00,67.3,58.0,30.19,WNW,284,0.0,-999.0,73,-99.99,,,0.00,weatherlink.com 1.10,2013-09-28 17:28:00,
2013-09-28 13:43:00,68.0,59.0,30.18,West,278,0.0,-999.0,72,-99.99,,,0.00,weatherlink.com 1.10,2013-09-28 17:43:00,
2013-09-28 13:58:00,69.5,58.0,30.18,West,273,0.0,-999.0,68,-99.99,,,0.00,weatherlink.com 1.10,2013-09-28 17:58:00,
2013-09-28 14:13:00,69.8,58.0,30.17,SW,216,0.0,-999.0,67,-99.99,,,0.00,weatherlink.com 1.10,2013-09-28 18:13:00,
2013-09-28 14:28:00,70.6,60.0,30.16,SE,143,0.0,-999.0,70,-99.99,,,0.00,weatherlink.com 1.10,2013-09-28 18:28:00,
2013-09-28 14:43:00,71.8,60.0,30.15,WSW,243,0.0,-999.0,66,-99.99,,,0.00,weatherlink.com 1.10,2013-09-28 18:43:00,
2013-09-28 14:58:00,72.0,61.0,30.15,SSW,198,0.0,-999.0,68,-99.99,,,0.00,weatherlink.com 1.10,2013-09-28 18:58:00,
2013-09-28 15:13:00,71.1,60.0,30.15,WNW,284,0.0,-999.0,68,-99.99,,,0.00,weatherlink.com 1.10,2013-09-28 19:13:00,
2013-09-28 15:28:00,72.9,60.0,30.14,West,281,0.0,-999.0,64,-99.99,,,0.00,weatherlink.com 1.10,2013-09-28 19:28:00,
2013-09-28 15:43:00,73.1,60.0,30.14,WNW,301,0.0,-999.0,64,-99.99,,,0.00,weatherlink.com 1.10,2013-09-28 19:43:00,
2013-09-28 15:58:00,72.8,60.0,30.14,West,264,0.0,-999.0,65,-99.99,,,0.00,weatherlink.com 1.10,2013-09-28 19:58:00,
2013-09-28 16:13:00,72.7,60.0,30.13,West,277,0.0,-999.0,65,-99.99,,,0.00,weatherlink.com 1.10,2013-09-28 20:13:00,
2013-09-28 16:28:00,70.9,58.0,30.13,West,277,0.0,-999.0,63,-99.99,,,0.00,weatherlink.com 1.10,2013-09-28 20:28:00,
2013-09-28 16:43:00,71.5,60.0,30.12,West,277,0.0,-999.0,67,-99.99,,,0.00,weatherlink.com 1.10,2013-09-28 20:43:00,
2013-09-28 16:58:00,71.4,61.0,30.12,West,277,0.0,-999.0,69,-99.99,,,0.00,weatherlink.com 1.10,2013-09-28 20:58:00,
2013-09-28 17:13:00,70.7,60.0,30.11,West,277,0.0,-999.0,68,-99.99,,,0.00,weatherlink.com 1.10,2013-09-28 21:13:00,
2013-09-28 17:28:00,70.8,58.0,30.11,West,268,0.0,-999.0,65,-99.99,,,0.00,weatherlink.com 1.10,2013-09-28 21:28:00,
2013-09-28 17:43:00,72.5,60.0,30.11,West,268,0.0,-999.0,66,-99.99,,,0.00,weatherlink.com 1.10,2013-09-28 21:43:00,
2013-09-28 17:58:00,70.4,58.0,30.10,NW,304,0.0,-999.0,66,-99.99,,,0.00,weatherlink.com 1.10,2013-09-28 21:58:00,
2013-09-28 18:13:00,70.3,60.0,30.10,NW,304,0.0,-999.0,70,-99.99,,,0.00,weatherlink.com 1.10,2013-09-28 22:13:00,
2013-09-28 18:28:00,69.9,59.0,30.10,WNW,300,0.0,-999.0,68,-99.99,,,0.00,weatherlink.com 1.10,2013-09-28 22:28:00,
2013-09-28 18:43:00,69.4,58.0,30.10,WNW,300,0.0,-999.0,67,-99.99,,,0.00,weatherlink.com 1.10,2013-09-28 22:43:00,
2013-09-28 18:58:00,68.1,58.0,30.10,WNW,300,0.0,-999.0,71,-99.99,,,0.00,weatherlink.com 1.10,2013-09-28 22:58:00,
2013-09-28 19:13:00,67.7,59.0,30.10,WNW,300,0.0,-999.0,73,-99.99,,,0.00,weatherlink.com 1.10,2013-09-28 23:13:00,
2013-09-28 19:28:00,66.7,58.0,30.10,WNW,300,0.0,-999.0,74,-99.99,,,0.00,weatherlink.com 1.10,2013-09-28 23:28:00,
2013-09-28 19:43:00,65.2,58.0,30.10,WNW,300,0.0,-999.0,78,-99.99,,,0.00,weatherlink.com 1.10,2013-09-28 23:43:00,
2013-09-28 19:58:00,63.8,59.0,30.10,West,274,3.0,-999.0,83,-99.99,,,0.00,weatherlink.com 1.10,2013-09-28 23:58:00,
2013-09-28 20:13:00,62.8,59.0,30.10,West,263,0.0,-999.0,86,-99.99,,,0.00,weatherlink.com 1.10,2013-09-29 00:13:00,
2013-09-28 20:28:00,62.0,58.0,30.09,West,263,0.0,-999.0,86,-99.99,,,0.00,weatherlink.com 1.10,2013-09-29 00:28:00,
2013-09-28 20:43:00,61.9,58.0,30.10,West,272,0.0,-999.0,87,-99.99,,,0.00,weatherlink.com 1.10,2013-09-29 00:43:00,
2013-09-28 20:58:00,61.4,58.0,30.10,West,272,0.0,-999.0,88,-99.99,,,0.00,weatherlink.com 1.10,2013-09-29 00:58:00,
2013-09-28 21:13:00,61.8,58.0,30.11,NW,314,0.0,-999.0,86,-99.99,,,0.00,weatherlink.com 1.10,2013-09-29 01:13:00,
2013-09-28 21:28:00,61.8,57.0,30.11,NW,320,0.0,-999.0,85,-99.99,,,0.00,weatherlink.com 1.10,2013-09-29 01:28:00,
2013-09-28 21:43:00,61.8,57.0,30.11,NNW,340,0.0,-999.0,85,-99.99,,,0.00,weatherlink.com 1.10,2013-09-29 01:43:00,
2013-09-28 21:58:00,61.0,57.0,30.12,NNW,346,0.0,-999.0,87,-99.99,,,0.00,weatherlink.com 1.10,2013-09-29 01:58:00,
2013-09-28 22:13:00,62.8,58.0,30.12,North,349,0.0,-999.0,84,-99.99,,,0.00,weatherlink.com 1.10,2013-09-29 02:13:00,
2013-09-28 22:28:00,64.5,58.0,30.13,North,349,0.0,-999.0,80,-99.99,,,0.00,weatherlink.com 1.10,2013-09-29 02:28:00,
2013-09-28 22:43:00,64.3,58.0,30.13,North,349,0.0,-999.0,80,-99.99,,,0.00,weatherlink.com 1.10,2013-09-29 02:43:00,
2013-09-28 22:58:00,63.5,57.0,30.13,North,349,0.0,-999.0,80,-99.99,,,0.00,weatherlink.com 1.10,2013-09-29 02:58:00,
2013-09-28 23:13:00,62.8,57.0,30.13,North,349,0.0,-999.0,80,-99.99,,,0.00,weatherlink.com 1.10,2013-09-29 03:13:00,
2013-09-28 23:28:00,62.6,57.0,30.14,WNW,289,0.0,-999.0,81,-99.99,,,0.00,weatherlink.com 1.10,2013-09-29 03:28:00,
2013-09-28 23:43:00,62.8,57.0,30.14,WNW,287,0.0,-999.0,80,-99.99,,,0.00,weatherlink.com 1.10,2013-09-29 03:43:00,
2013-09-28 23:58:00,62.9,56.0,30.14,WNW,287,0.0,-999.0,78,-99.99,,,0.00,weatherlink.com 1.10,2013-09-29 03:58:00,